User: anonymous   Login
Location: Home
(42.5358°N, 72.7383°W)
Time: 16:18:05
(UTC-05:00)
Language:

PicSat - Orbit

View from above orbital plane
View from above orbital plane
View from above satellite
View from above satellite

Ground track
Ground track

The orbit data is extracted from the following two-line orbital elements,

1 43131U 18004W   22021.46119863  .00007944  00000-0  27618-3 0  9991
2 43131  97.3916 101.0748 0008513 143.0533 217.1295 15.29964826224069
Epoch (UTC): 21 January 2022 11:04:07
Eccentricity: 0.0008513
inclination: 97.3916°
perigee height: 470 km
apogee height: 482 km
right ascension of ascending node: 101.0748°
argument of perigee: 143.0533°
revolutions per day: 15.29964826
mean anomaly at epoch: 217.1295°
orbit number at epoch: 22406

The dashed part of the orbit path shows where the satellite is in the earth's shadow,  

DLR